Humidity-temperature Sensor

Selected Measurement Type: Relative Humidity

 
Relative Humidity [%]     6 entries per hour
Showing data from 7/26/2014 (00:00:00 Z) to 7/25/2014 (00:01:00 Z)
Previous Next [ Day | 3-Days | 7-Days ]
First Last
Prev [ Day | 3-Days | 7-Days ] Next
First Last

Start Time:     :
End Time:     :     
Time (in GMT) :00 :50 :40 :30 :20 :10
Previous Next [ Day | 3-Days | 7-Days ]
First Last
Prev [ Day | 3-Days | 7-Days ] Next
First Last


123 => good data
MM => data is determined as missing
-- => data not received/configured
Back to Top Back to Top
7/26/2014 00:00 to 23:10 87.72 87.30 87.91 87.76 87.16 87.64
7/25/2014 23:00 to 22:10 87.89 87.64 87.80 87.50 87.56 87.00
7/25/2014 22:00 to 21:10 86.94 86.96 87.70 87.72 86.63 86.94
7/25/2014 21:00 to 20:10 86.69 86.83 86.43 87.04 86.81 87.24
7/25/2014 20:00 to 19:10 86.85 85.97 86.01 86.29 86.21 86.17
7/25/2014 19:00 to 18:10 85.78 86.15 85.42 85.02 85.42 85.48
7/25/2014 18:00 to 17:10 85.84 85.92 85.88 86.01 85.28 85.42
7/25/2014 17:00 to 16:10 85.58 85.14 85.16 86.17 84.81 83.86
7/25/2014 16:00 to 15:10 84.13 84.83 84.13 84.23 84.33 84.71
7/25/2014 15:00 to 14:10 84.55 84.49 83.24 83.36 83.86 83.80
7/25/2014 14:00 to 13:10 83.22 83.09 83.01 83.44 84.89 84.95
7/25/2014 13:00 to 12:10 87.04 88.19 87.40 87.46 86.67 85.97
7/25/2014 12:00 to 11:10 85.10 86.53 88.37 88.59 88.86 89.50
7/25/2014 11:00 to 10:10 89.79 90.33 90.17 89.06 89.87 89.81
7/25/2014 10:00 to 9:10 88.25 87.85 86.37 86.33 87.04 86.63
7/25/2014 09:00 to 8:10 86.92 89.14 89.10 88.07 88.15 88.41
7/25/2014 08:00 to 7:10 87.70 89.89 89.71 89.34 89.38 89.40
7/25/2014 07:00 to 6:10 89.10 89.89 92.31 93.12 94.31 95.18
7/25/2014 06:00 to 5:10 95.73 95.89 95.61 96.68 96.66 96.60
7/25/2014 05:00 to 4:10 96.22 95.26 92.66 93.06 91.42 89.97
7/25/2014 04:00 to 3:10 88.59 88.53 89.83 90.25 91.20 90.74
7/25/2014 03:00 to 2:10 89.79 88.78 89.44 89.16 89.08 88.80
7/25/2014 02:00 to 1:10 88.92 88.23 88.84 89.36 89.24 88.90
7/25/2014 01:00 to 0:10 88.76 88.67 89.44 89.12 89.24 88.51